SCP
0 0 0 0 0 0 0 0 0 0 0 0 0 0 0 0 0 0 0 0 0 0 0 0 0 0 0 0 0 0 1 1 1 1 1 1 1 1 1 1 1 1 1 1
0 0 0 0 0 0 0 0 0 0 0 0 0 0 0 0 0 0 0 0 0 0 0 0 0 0 0 0 0 0 1 1 1 1 1 1 1 1 1 1 1 1 1 1
0 0 0 0 0 0 0 0 0 0 0 0 0 0 0 0 0 0 0 0 0 0 0 0 0 0 0 0 0 0 1 1 1 1 1 1 1 1 1 2 2 1 1 1
0 0 0 0 0 0 0 0 0 0 0 0 0 0 0 0 0 0 0 0 0 0 0 0 0 0 0 0 0 0 1 1 1 1 1 0 0 1 1 1 2 2 1 1
0 0 0 0 0 0 0 0 0 0 0 0 0 0 0 0 0 0 0 0 0 0 0 0 0 0 0 0 0 0 1 1 1 1 0 0 0 0 1 1 1 1 1 1
0 0 0 0 0 0 0 0 0 0 0 0 0 0 0 0 0 0 0 0 0 0 0 0 0 0 0 0 1 1 1 2 1 1 0 0 0 0 1 1 1 1 1 1
0 0 0 0 0 0 0 0 0 0 0 0 0 0 0 0 0 0 0 0 0 0 0 0 0 0 0 0 1 1 1 1 1 0 0 0 0 0 0 1 1 1 1 1
0 0 0 0 0 0 0 0 0 0 0 0 0 0 0 0 0 0 0 0 0 0 0 0 0 0 0 0 0 1 1 1 0 0 0 0 0 0 0 0 0 1 1 1
0 0 0 0 0 0 0 0 0 0 0 0 0 0 0 0 0 0 0 0 0 0 0 0 0 0 0 0 0 0 0 0 0 0 0 0 0 0 0 0 0 0 0 0
0 0 0 0 0 0 0 0 0 0 0 0 0 0 0 0 0 0 0 0 0 0 0 0 0 0 0 0 0 0 0 0 0 0 0 0 0 0 0 0 0 0 0 0
0 0 0 0 0 0 0 0 0 0 0 0 0 0 0 0 0 0 0 0 0 0 0 0 0 0 0 0 0 0 0 0 0 0 0 0 0 0 0 0 0 0 0 0
0 0 0 0 0 0 0 0 0 0 0 0 0 0 0 0 0 0 0 0 0 0 0 0 0 0 0 0 0 0 0 0 0 0 0 0 0 0 0 0 0 0 0 0
0 0 0 0 0 0 0 0 0 0 0 0 0 0 0 0 0 0 0 0 0 0 0 0 0 0 0 0 0 0 0 0 0 0 0 0 0 0 0 0 0 0 0 0
0 0 0 0 0 0 0 0 0 0 0 0 0 0 0 0 0 0 0 0 0 0 0 0 0 0 0 0 0 0 0 0 0 0 0 0 0 0 0 0 0 0 0 0
0 0 0 0 0 0 0 0 0 0 0 0 0 0 0 0 0 0 0 0 0 0 0 0 0 0 0 0 0 0 0 0 0 0 0 0 0 0 0 0 0 0 0 0
0 0 0 0 0 0 0 0 0 0 0 0 0 0 0 0 0 0 0 0 0 0 0 0 0 0 0 0 0 0 0 0 0 0 0 0 0 0 0 0 0 0 0 0
0 0 0 0 0 0 0 0 0 0 0 0 0 0 0 0 0 0 0 0 0 0 0 0 0 0 0 0 0 0 0 0 0 0 0 0 0 0 0 0 0 0 0 0
0 0 0 0 0 0 0 0 0 0 0 0 0 0 0 0 0 0 0 0 0 0 0 0 0 0 0 0 0 0 0 0 0 0 0 0 0 0 0 0 0 0 0 0
0 0 0 0 0 0 0 0 0 0 0 0 0 0 0 0 0 0 0 0 0 0 0 0 0 0 0 0 0 0 0 0 0 0 0 0 0 0 0 0 0 0 0 0
0 0 0 0 0 0 0 0 0 0 0 0 0 0 0 0 0 0 0 0 0 0 0 0 0 0 0 0 0 0 0 0 0 0 0 0 0 0 0 0 0 0 0 0
0 0 0 0 0 0 0 0 0 0 0 0 0 0 0 0 0 0 0 0 0 0 0 0 0 0 0 0 0 0 0 0 0 0 0 0 0 0 0 0 0 0 0 0
0 0 0 0 0 0 0 0 0 0 0 0 0 0 0 0 0 0 0 0 0 0 0 0 0 0 0 0 0 0 0 0 0 0 0 0 0 0 0 0 0 0 0 0
0 0 0 0 0 0 0 0 0 0 0 0 0 0 0 0 0 0 0 0 0 0 0 0 0 0 0 0 0 0 0 0 0 0 0 0 0 0 0 0 0 0 0 0
0 0 0 0 0 0 0 0 0 0 0 0 0 0 0 0 -0 0 0 0 0 0 0 0 0 0 0 0 0 0 0 0 0 0 0 0 0 0 0 0 0 0 0 0
0 0 0 0 0 0 0 0 0 0 0 0 0 0 0 0 0 0 0 0 0 0 0 0 0 0 0 0 0 0 0 0 0 0 0 0 0 0 0 0 0 0 0 0
0 0 0 0 0 0 0 0 0 0 0 0 0 0 0 0 0 0 0 0 0 0 0 0 0 0 0 0 0 0 0 0 0 0 0 0 0 0 0 0 0 0 0 0
Wind_Speed
1 1 1 1 1 3 2 2 3 2 1 3 6 6 5 2 1 2 2 2 3 4 5 5 5 5 5 5 5 4 3 3 2 1 2 2 2 1 1 1 2 2 2 3
1 1 2 1 2 3 3 3 2 1 1 3 5 7 6 2 1 1 2 3 4 5 6 6 6 5 5 5 5 4 3 3 3 2 2 2 1 1 1 1 1 2 2 2
2 2 1 2 2 2 3 3 2 3 4 5 4 5 4 3 3 2 2 2 3 4 6 6 6 6 5 5 5 5 4 4 4 3 1 0 0 0 1 0 0 1 1 2
2 1 1 1 2 3 3 3 3 3 3 3 2 4 3 3 2 1 1 2 4 5 5 5 6 7 6 6 4 4 4 4 4 2 1 2 2 2 2 1 1 1 1 1
1 2 2 1 2 3 2 4 4 5 4 3 4 3 4 3 3 1 1 3 4 4 5 5 6 6 6 6 4 4 4 4 4 2 1 1 1 1 1 1 1 1 1 2
0 0 1 2 2 2 3 4 5 3 2 3 5 4 3 2 2 0 1 3 3 4 5 5 5 6 6 6 5 5 5 5 4 3 2 1 1 1 1 1 1 1 1 1
0 1 2 0 2 1 2 2 1 1 3 4 2 2 3 1 3 2 1 2 3 3 4 5 6 6 7 7 6 5 5 5 5 3 3 2 1 0 1 1 1 1 1 1
2 1 1 0 1 1 2 2 2 2 2 1 1 3 1 4 4 3 2 1 2 3 4 4 5 5 5 6 6 5 5 5 5 4 3 3 2 1 0 0 1 1 1 0
4 1 1 0 1 1 2 1 1 2 4 3 3 3 2 3 3 2 1 1 1 2 3 4 4 4 5 5 6 5 4 4 5 5 4 3 3 2 0 1 1 1 0 0
3 3 1 1 1 2 1 2 1 2 3 4 3 3 3 4 3 2 1 0 1 2 2 3 3 4 4 4 5 5 4 4 4 4 4 3 3 3 2 2 1 1 0 0
3 3 2 2 2 1 2 1 2 3 3 3 4 2 1 3 3 2 1 0 1 1 2 2 3 3 3 4 4 4 4 4 4 4 4 4 3 2 2 2 2 0 0 1
2 3 4 3 1 1 1 2 1 1 3 3 3 4 1 3 3 2 1 1 1 0 1 1 2 3 3 4 4 4 4 4 4 4 4 4 3 3 3 2 1 1 1 1
4 3 4 1 1 1 3 3 3 3 2 3 3 4 1 2 2 1 1 1 1 1 1 1 2 2 3 3 3 3 3 4 4 4 4 4 4 4 3 2 2 1 1 1
3 3 3 4 3 3 5 5 5 3 3 4 6 5 3 2 2 2 2 2 1 1 0 1 1 1 2 2 2 3 3 3 3 3 3 3 3 3 3 3 2 2 2 1
2 4 5 9 9 8 9 9 7 8 8 7 6 5 6 3 2 2 2 2 1 1 1 0 1 1 1 2 2 2 2 2 2 3 3 3 3 3 3 3 2 2 2 2
3 4 6 8 7 7 10 11 10 9 10 10 9 10 4 2 1 1 2 2 2 1 1 1 1 1 1 2 2 1 1 1 1 1 2 2 2 3 3 3 3 3 3 3
3 3 4 5 4 6 9 8 9 7 6 7 9 7 2 2 2 3 2 2 3 2 2 2 1 1 1 1 1 1 1 1 1 1 2 2 2 2 2 3 3 3 2 2
4 4 3 5 6 7 6 1 2 5 7 7 6 4 3 3 2 2 2 2 2 2 2 2 2 1 1 1 1 1 1 1 1 1 2 2 2 2 2 3 3 2 2 2
5 3 3 3 5 9 4 3 3 3 5 6 6 5 3 1 2 2 2 2 2 2 2 2 2 2 1 1 1 0 0 0 1 1 1 1 1 1 2 2 2 2 2 2
3 4 4 4 4 7 3 3 2 1 5 3 3 3 2 2 1 3 1 1 1 1 1 1 1 1 1 1 1 1 1 0 0 0 1 1 0 0 1 1 1 1 1 1
4 5 6 7 6 9 3 4 4 2 4 2 2 3 3 4 4 2 2 1 1 2 2 2 2 2 2 2 2 2 1 2 1 0 0 0 0 0 0 1 1 1 1 2
7 6 7 6 7 10 4 5 5 5 1 1 2 2 3 3 2 1 2 2 2 2 2 2 2 2 2 2 2 2 2 2 1 1 0 0 0 1 0 0 1 1 1 2
8 8 5 8 9 4 6 6 4 1 2 2 2 3 3 3 4 3 3 3 3 3 3 2 3 3 2 2 3 3 3 1 1 1 1 1 1 0 0 0 1 1 1 1
5 4 4 7 9 7 7 7 6 5 5 4 4 4 4 5 5 4 4 3 3 4 3 3 3 3 3 3 3 3 2 2 2 2 2 1 1 1 0 0 0 1 1 1
5 3 5 9 9 8 9 9 7 5 4 4 4 4 5 5 5 5 4 4 4 4 3 3 4 4 4 4 3 3 3 3 3 2 2 2 2 1 1 1 1 1 1 1
9 11 10 11 8 6 6 3 3 4 5 5 5 5 5 5 5 5 5 4 4 4 3 4 4 4 4 3 3 3 3 3 3 2 2 2 2 1 1 1 1 2 2 3
Wind_Direction
171 203 147 177 262 329 303 283 285 283 241 265 262 271 274 257 265 299 321 329 342 341 349 352 345 345 338 333 325 312 307 295 292 265 227 224 230 221 224 218 194 181 179 170
164 59 31 356 290 308 290 275 278 294 277 277 273 274 266 208 147 40 7 0 359 346 347 349 344 346 337 332 326 323 319 317 302 272 242 208 205 207 201 221 160 170 167 161
54 49 344 279 275 290 298 298 323 326 316 266 270 274 224 154 130 85 45 22 3 349 344 341 344 347 342 344 342 330 323 314 300 287 272 227 216 229 216 222 167 156 152 158
53 25 321 297 323 334 312 338 324 303 299 281 252 282 236 172 165 118 55 20 3 352 349 351 350 349 349 346 344 336 325 322 314 308 257 212 202 205 221 197 171 152 156 148
44 33 2 352 1 330 304 310 284 269 272 283 235 244 260 174 197 206 43 18 5 360 352 355 359 354 352 352 349 342 340 340 342 344 310 230 214 208 210 174 153 169 178 160
127 55 9 350 328 276 295 290 265 245 251 262 222 210 268 188 196 186 46 25 10 3 356 0 5 2 358 357 359 356 351 347 351 354 348 338 206 215 199 203 177 161 153 139
64 130 121 322 307 254 291 310 294 222 219 243 183 200 255 118 108 118 75 17 6 5 6 2 1 0 358 355 355 358 357 353 351 358 9 2 354 295 203 204 166 161 167 154
347 2 124 180 326 315 278 299 334 304 296 297 211 226 219 112 100 101 108 82 29 11 9 3 359 358 358 356 357 359 360 355 357 5 14 11 7 8 238 116 142 135 127 130
351 343 100 184 309 306 308 292 332 302 288 268 230 193 155 126 123 140 135 70 22 8 0 358 355 2 4 2 359 355 359 3 7 7 9 12 11 354 349 94 88 115 131 161
334 306 262 185 211 222 276 315 313 284 305 295 257 210 210 186 201 192 172 354 355 5 359 359 1 5 5 3 2 2 7 13 15 14 13 16 22 8 14 49 57 60 38 169
319 296 278 217 216 221 200 242 266 274 273 293 302 288 46 155 163 167 198 136 50 14 351 360 2 4 8 11 11 5 7 17 18 17 20 20 15 11 26 39 37 25 78 77
345 307 282 249 136 107 252 274 274 282 295 274 278 273 75 103 128 152 186 161 119 60 9 4 5 15 15 12 8 7 10 15 14 17 22 19 10 12 25 29 21 30 49 39
339 304 304 271 150 185 247 246 251 268 288 260 257 256 125 116 150 181 197 177 167 128 37 5 14 17 9 2 358 7 11 10 6 10 20 19 12 8 5 3 4 15 26 4
316 268 250 274 293 294 270 259 236 225 229 258 242 256 265 248 231 222 204 200 189 149 113 6 357 355 355 352 355 1 3 7 4 7 16 16 8 2 357 1 6 9 11 357
278 269 272 274 276 273 267 262 244 224 227 241 263 268 269 275 259 242 202 196 199 181 185 211 300 320 339 346 345 352 356 3 1 2 10 5 2 5 1 2 4 1 360 356
270 278 290 278 257 257 264 255 244 239 235 246 264 273 263 248 220 233 220 210 214 221 216 217 225 273 312 322 322 332 333 334 349 357 357 354 1 4 4 5 12 13 6 358
271 286 303 287 303 303 270 240 218 220 222 223 240 247 252 265 242 237 228 224 222 215 212 217 222 233 260 277 294 307 323 338 4 358 357 7 14 12 7 12 20 13 359 356
269 287 274 289 315 262 244 129 187 231 241 228 240 251 248 261 264 243 213 205 232 226 212 213 207 216 233 256 296 310 4 14 27 26 17 12 12 7 10 19 12 357 352 344
218 247 271 278 284 277 253 197 182 223 264 222 226 239 242 269 311 264 209 186 213 218 205 199 199 209 207 204 224 6 39 33 34 22 0 351 6 8 11 10 352 343 350 353
208 228 253 261 266 263 257 130 107 41 273 223 193 208 205 160 244 252 170 156 195 185 170 177 180 184 199 215 183 173 204 224 274 288 301 316 14 30 353 332 335 347 353 352
188 210 224 239 254 266 241 141 130 197 248 150 164 195 193 202 215 227 167 180 196 203 197 182 183 194 211 202 179 199 211 236 245 253 314 339 341 295 297 337 351 345 346 359
193 200 206 206 226 251 175 152 195 222 201 197 215 216 220 226 239 238 216 217 218 222 211 191 196 213 215 195 187 210 229 232 169 146 204 246 283 300 341 346 329 334 342 348
208 209 208 210 224 231 179 206 225 223 247 250 248 255 239 238 241 236 232 228 221 216 211 200 207 219 222 207 197 217 235 209 168 182 222 227 214 273 320 285 300 324 329 330
231 201 234 263 261 257 237 234 236 228 232 245 246 247 241 240 241 238 232 232 226 217 212 206 208 220 231 222 213 218 215 190 188 213 223 203 192 225 262 276 282 290 290 292
243 206 229 253 265 274 257 240 233 232 233 241 245 235 231 234 239 236 235 231 227 224 215 206 213 223 232 224 220 214 200 184 201 214 215 205 197 197 216 234 250 253 252 247
212 223 227 242 237 236 254 231 216 225 230 229 235 243 239 227 232 231 232 226 222 221 216 219 223 225 230 226 222 213 196 187 197 213 214 207 204 204 204 227 281 270 254 282